When you browse on this site, cookies collect data to enhance your experience and personalize the content and advertising you see.
Visit our Privacy Policy to learn more. By continuing to use the site, you agree to this use of cookies and data.
  • In Slovakia
  • List of Countries
  • For 7 days
  • Water Temperature
  • Satellite Maps
  • Weather Map
  • Weather Widgets
  • user-avatar
    Login

    Hourly Weather Golocin

    Today, 22 April, Monday

    Time Temperature Precipitation Wind Pressure Humidity
    00:00 +4°C° 0 mm 3 mps 753 mmHg 86%
    01:00 +3°C° 0 mm 3 mps 753 mmHg 86%
    02:00 +3°C° 0 mm 3 mps 754 mmHg 88%
    03:00 +3°C° 0 mm 4 mps 754 mmHg 91%
    04:00 +3°C° 0 mm 4 mps 754 mmHg 94%
    05:00 +3°C° 0 mm 5 mps 754 mmHg 90%
    06:00 +6°C° 0 mm 5 mps 754 mmHg 86%
    07:00 +7°C° 0 mm 6 mps 754 mmHg 82%
    08:00 +8°C° 0 mm 6 mps 754 mmHg 79%
    09:00 +9°C° 0 mm 6 mps 755 mmHg 76%
    10:00 +10°C° 0 mm 6 mps 755 mmHg 73%
    11:00 +13°C° 0 mm 6 mps 755 mmHg 65%
    12:00 +15°C° 0 mm 7 mps 755 mmHg 58%
    13:00 +17°C° 0 mm 7 mps 754 mmHg 51%
    14:00 +17°C° 0 mm 7 mps 754 mmHg 51%
    15:00 +17°C° 0 mm 7 mps 754 mmHg 51%
    16:00 +17°C° 0 mm 7 mps 754 mmHg 51%
    17:00 +15°C° 0 mm 7 mps 754 mmHg 54%
    18:00 +14°C° 0 mm 6 mps 754 mmHg 57%
    19:00 +12°C° 0 mm 5 mps 755 mmHg 60%
    20:00 +10°C° 0 mm 5 mps 755 mmHg 59%
    21:00 +10°C° 0 mm 6 mps 755 mmHg 58%
    22:00 +9°C° 0 mm 6 mps 756 mmHg 57%
    23:00 +9°C° 0 mm 6 mps 756 mmHg 56%

    Tomorrow, 23 April, Tuesday

    Time Temperature Precipitation Wind Pressure Humidity
    00:00 +8°C° 0 mm 6 mps 756 mmHg 55%
    01:00 +8°C° 0 mm 6 mps 756 mmHg 54%
    02:00 +8°C° 0 mm 6 mps 755 mmHg 54%
    03:00 +6°C° 0 mm 7 mps 755 mmHg 54%
    04:00 +6°C° 0 mm 7 mps 755 mmHg 54%
    05:00 +7°C° 0 mm 8 mps 755 mmHg 53%
    06:00 +8°C° 0 mm 9 mps 755 mmHg 52%
    07:00 +10°C° 0 mm 9 mps 755 mmHg 51%
    08:00 +11°C° 0 mm 10 mps 755 mmHg 48%
    09:00 +12°C° 0 mm 11 mps 755 mmHg 45%
    10:00 +13°C° 0 mm 11 mps 754 mmHg 42%
    11:00 +14°C° 0 mm 11 mps 754 mmHg 41%
    12:00 +16°C° 0 mm 11 mps 754 mmHg 40%
    13:00 +16°C° 0 mm 11 mps 753 mmHg 40%
    14:00 +16°C° 0 mm 11 mps 753 mmHg 41%
    15:00 +16°C° 0 mm 10 mps 753 mmHg 43%
    16:00 +16°C° 0 mm 10 mps 752 mmHg 44%
    17:00 +15°C° 0 mm 9 mps 752 mmHg 46%
    18:00 +13°C° 0 mm 8 mps 752 mmHg 49%
    19:00 +12°C° 0 mm 7 mps 752 mmHg 51%
    20:00 +11°C° 0 mm 8 mps 752 mmHg 51%
    21:00 +11°C° 0 mm 8 mps 752 mmHg 50%
    22:00 +11°C° 0 mm 8 mps 752 mmHg 50%
    23:00 +10°C° 0 mm 8 mps 752 mmHg 51%

    Day after tomorrow, 24 April, Wednesday

    Time Temperature Precipitation Wind Pressure Humidity
    00:00 +10°C° 0 mm 8 mps 752 mmHg 52%
    01:00 +10°C° 0 mm 8 mps 752 mmHg 52%
    02:00 +10°C° 0 mm 8 mps 752 mmHg 54%
    03:00 +9°C° 0 mm 8 mps 752 mmHg 56%
    04:00 +8°C° 0 mm 9 mps 751 mmHg 58%
    05:00 +8°C° 0 mm 9 mps 751 mmHg 59%
    06:00 +10°C° 0 mm 9 mps 751 mmHg 60%
    07:00 +9°C° 0 mm 10 mps 751 mmHg 61%
    08:00 +12°C° 0 mm 9 mps 751 mmHg 59%
    09:00 +13°C° 0 mm 9 mps 751 mmHg 57%
    10:00 +15°C° 0 mm 9 mps 751 mmHg 55%
    11:00 +16°C° 0 mm 9 mps 751 mmHg 54%
    12:00 +18°C° 0 mm 9 mps 751 mmHg 53%
    13:00 +19°C° 0 mm 9 mps 751 mmHg 52%
    14:00 +19°C° 0 mm 9 mps 751 mmHg 54%
    15:00 +20°C° 0 mm 8 mps 751 mmHg 56%
    16:00 +20°C° 0 mm 8 mps 750 mmHg 57%
    17:00 +18°C° 0 mm 7 mps 750 mmHg 61%
    18:00 +16°C° 0 mm 7 mps 750 mmHg 64%
    19:00 +15°C° 0 mm 6 mps 750 mmHg 67%
    20:00 +15°C° 0 mm 6 mps 751 mmHg 70%
    21:00 +14°C° 0 mm 5 mps 751 mmHg 73%
    22:00 +13°C° 0 mm 5 mps 751 mmHg 76%
    23:00 +13°C° 0 mm 5 mps 751 mmHg 78%

    25 April, Thursday

    Time Temperature Precipitation Wind Pressure Humidity
    00:00 +12°C° 0 mm 5 mps 751 mmHg 80%
    01:00 +12°C° 0 mm 5 mps 751 mmHg 82%
    02:00 +10°C° 0 mm 5 mps 751 mmHg 84%
    03:00 +10°C° 0 mm 5 mps 751 mmHg 86%
    04:00 +10°C° 0 mm 5 mps 751 mmHg 88%
    05:00 +12°C° 0 mm 5 mps 751 mmHg 84%
    06:00 +13°C° 0 mm 5 mps 751 mmHg 81%
    07:00 +14°C° 0 mm 6 mps 751 mmHg 77%
    08:00 +16°C° 0 mm 6 mps 751 mmHg 72%
    09:00 +17°C° 0 mm 6 mps 751 mmHg 67%
    10:00 +20°C° 0 mm 6 mps 751 mmHg 61%
    11:00 +22°C° 0 mm 6 mps 751 mmHg 58%
    12:00 +23°C° 0 mm 6 mps 751 mmHg 54%
    13:00 +24°C° 0 mm 6 mps 750 mmHg 50%
    14:00 +23°C° 0 mm 5 mps 750 mmHg 53%
    15:00 +23°C° 0 mm 4 mps 750 mmHg 56%
    16:00 +22°C° 0 mm 3 mps 750 mmHg 59%
    17:00 +21°C° 0 mm 3 mps 750 mmHg 64%
    18:00 +19°C° 0 mm 2 mps 750 mmHg 68%
    19:00 +18°C° 0 mm 2 mps 750 mmHg 73%
    20:00 +18°C° 0 mm 2 mps 750 mmHg 72%
    21:00 +18°C° 0 mm 2 mps 750 mmHg 72%
    22:00 +18°C° 0 mm 2 mps 750 mmHg 72%
    23:00 +17°C° 0 mm 2 mps 750 mmHg 75%

    26 April, Friday

    Time Temperature Precipitation Wind Pressure Humidity
    00:00 +16°C° 0 mm 2 mps 750 mmHg 79%
    01:00 +15°C° 0 mm 2 mps 749 mmHg 83%
    02:00 +15°C° 0 mm 2 mps 749 mmHg 83%
    03:00 +15°C° 0 mm 2 mps 749 mmHg 83%
    04:00 +14°C° 0 mm 3 mps 749 mmHg 83%
    05:00 +16°C° 0.2 mm 3 mps 748 mmHg 80%
    06:00 +17°C° 0.2 mm 3 mps 748 mmHg 78%
    07:00 +18°C° 0.2 mm 4 mps 748 mmHg 75%
    08:00 +19°C° 0 mm 4 mps 748 mmHg 71%
    09:00 +21°C° 0 mm 4 mps 747 mmHg 68%
    10:00 +22°C° 0 mm 4 mps 747 mmHg 64%
    11:00 +23°C° 0 mm 4 mps 747 mmHg 59%
    12:00 +25°C° 0 mm 5 mps 746 mmHg 53%
    13:00 +27°C° 0 mm 5 mps 746 mmHg 48%
    14:00 +27°C° 0 mm 5 mps 746 mmHg 47%
    15:00 +27°C° 0 mm 5 mps 745 mmHg 47%
    16:00 +27°C° 0 mm 4 mps 745 mmHg 46%
    17:00 +25°C° 0 mm 4 mps 745 mmHg 51%
    18:00 +22°C° 0 mm 4 mps 745 mmHg 57%
    19:00 +21°C° 0 mm 4 mps 745 mmHg 62%
    20:00 +20°C° 0 mm 4 mps 745 mmHg 64%
    21:00 +19°C° 0 mm 4 mps 745 mmHg 67%
    22:00 +18°C° 0 mm 4 mps 745 mmHg 69%
    23:00 +17°C° 0 mm 4 mps 746 mmHg 77%

    27 April, Saturday

    Time Temperature Precipitation Wind Pressure Humidity
    00:00 +15°C° 0 mm 5 mps 746 mmHg 84%
    01:00 +15°C° 0 mm 5 mps 746 mmHg 91%
    02:00 +14°C° 0.4 mm 5 mps 747 mmHg 91%
    03:00 +14°C° 0.4 mm 5 mps 747 mmHg 90%
    04:00 +14°C° 0.4 mm 6 mps 748 mmHg 89%
    05:00 +13°C° 0.1 mm 6 mps 748 mmHg 89%
    06:00 +13°C° 0.1 mm 5 mps 749 mmHg 89%
    07:00 +13°C° 0.1 mm 5 mps 749 mmHg 88%
    08:00 +13°C° 0 mm 5 mps 750 mmHg 87%
    09:00 +13°C° 0 mm 5 mps 750 mmHg 85%
    10:00 +13°C° 0 mm 5 mps 751 mmHg 83%
    11:00 +13°C° 0 mm 5 mps 751 mmHg 81%
    12:00 +13°C° 0 mm 5 mps 751 mmHg 79%
    13:00 +13°C° 0 mm 5 mps 752 mmHg 77%
    14:00 +14°C° 0 mm 4 mps 752 mmHg 73%
    15:00 +14°C° 0 mm 4 mps 752 mmHg 69%
    16:00 +15°C° 0 mm 4 mps 752 mmHg 65%
    17:00 +14°C° 0 mm 3 mps 752 mmHg 68%
    18:00 +13°C° 0 mm 3 mps 752 mmHg 72%
    19:00 +13°C° 0 mm 2 mps 752 mmHg 75%
    20:00 +12°C° 0 mm 3 mps 753 mmHg 76%
    21:00 +11°C° 0 mm 3 mps 753 mmHg 78%
    22:00 +11°C° 0 mm 3 mps 753 mmHg 80%
    23:00 +10°C° 0 mm 3 mps 753 mmHg 82%
    Show more